Location: Azul
(36.7830°S, 59.8500°W)
Time: 20:09:50
(UTC-03:00)

ISS - Pass Details

Date: 25 April 2018
Orbit: 402 x 407 km, 51.6° (Epoch: 27 April)

Event Time Altitude Azimuth Distance (km) Brightness Sun altitude
Rises 20:03:32 0° 300° (WNW) 2,334 1.1 -21.2°
Reaches altitude 10° 20:05:40 10° 294° (WNW) 1,479 0.0 -21.6°
Enters shadow 20:08:47 49° 226° (SW) 546 -3.0 -22.2°
